{"data":{"norad_id":63686,"epoch":"2026-09-20T13:55:55.215552Z","epoch_age_seconds":145880,"freshness":"FRESH","line1":"1 63686U 25085Y   26263.58050018  .00004758  00000+0  18218-3 0  9991","line2":"2 63686  42.9970  10.4701 0000733 236.0247 124.0535 15.27599913 78783","mean_motion":15.27599913,"eccentricity":7.33e-5,"inclination_deg":42.997,"raan_deg":10.4701,"arg_perigee_deg":236.0247,"mean_anomaly_deg":124.0535,"bstar":0.00018218,"rev_number":7878,"period_min":94.265519901218,"perigee_km":482.48654943146,"apogee_km":483.49239057196,"semimajor_km":6861.1264700017,"source":"CELESTRAK","updated_at":"2026-09-21T09:00:35.061502Z"}}